• In Uzbekistan
  • List of Countries
  • For 7 days
  • Water Temperature
  • Satellite Maps
  • Weather Map
  • Weather Widgets
  • user-avatar
    Login

    Hourly Weather Córdoba

    Today, 23 September, Saturday

    Time Temperature Precipitation Wind Pressure Humidity
    00:00 +14°C° 0 mm 1 mps 728 mmHg 57%
    01:00 +14°C° 0 mm 1 mps 728 mmHg 59%
    02:00 +13°C° 0 mm 1 mps 728 mmHg 60%
    03:00 +13°C° 0 mm 1 mps 728 mmHg 62%
    04:00 +13°C° 0 mm 1 mps 728 mmHg 64%
    05:00 +12°C° 0 mm 1 mps 728 mmHg 66%
    06:00 +14°C° 0 mm 1 mps 728 mmHg 62%
    07:00 +15°C° 0 mm 1 mps 729 mmHg 59%
    08:00 +17°C° 0 mm 2 mps 729 mmHg 55%
    09:00 +18°C° 0 mm 2 mps 729 mmHg 48%
    10:00 +20°C° 0 mm 3 mps 729 mmHg 41%
    11:00 +22°C° 0 mm 3 mps 729 mmHg 34%
    12:00 +23°C° 0 mm 4 mps 728 mmHg 32%
    13:00 +25°C° 0 mm 4 mps 728 mmHg 30%
    14:00 +26°C° 0 mm 5 mps 727 mmHg 28%
    15:00 +25°C° 0 mm 5 mps 726 mmHg 31%
    16:00 +23°C° 0 mm 5 mps 726 mmHg 34%
    17:00 +22°C° 0 mm 5 mps 725 mmHg 37%
    18:00 +20°C° 0 mm 4 mps 725 mmHg 44%
    19:00 +19°C° 0 mm 3 mps 725 mmHg 50%
    20:00 +17°C° 0 mm 3 mps 726 mmHg 57%
    21:00 +16°C° 0 mm 2 mps 726 mmHg 60%
    22:00 +15°C° 0 mm 2 mps 726 mmHg 63%
    23:00 +15°C° 0 mm 2 mps 726 mmHg 66%

    Tomorrow, 24 September, Sunday

    Time Temperature Precipitation Wind Pressure Humidity
    00:00 +14°C° 0 mm 2 mps 726 mmHg 68%
    01:00 +14°C° 0 mm 2 mps 725 mmHg 70%
    02:00 +14°C° 0 mm 1 mps 725 mmHg 72%
    03:00 +13°C° 0 mm 1 mps 724 mmHg 74%
    04:00 +13°C° 0 mm 1 mps 724 mmHg 77%
    05:00 +13°C° 0 mm 1 mps 724 mmHg 79%
    06:00 +14°C° 0 mm 2 mps 724 mmHg 76%
    07:00 +15°C° 0 mm 2 mps 725 mmHg 72%
    08:00 +17°C° 0 mm 3 mps 725 mmHg 69%
    09:00 +19°C° 0 mm 3 mps 725 mmHg 64%
    10:00 +21°C° 0 mm 4 mps 725 mmHg 58%
    11:00 +23°C° 0 mm 4 mps 725 mmHg 53%
    12:00 +25°C° 0 mm 4 mps 725 mmHg 50%
    13:00 +26°C° 0 mm 5 mps 724 mmHg 48%
    14:00 +28°C° 0 mm 5 mps 723 mmHg 45%
    15:00 +27°C° 0 mm 5 mps 723 mmHg 47%
    16:00 +27°C° 0 mm 5 mps 723 mmHg 49%
    17:00 +26°C° 0 mm 5 mps 723 mmHg 51%
    18:00 +25°C° 0 mm 4 mps 723 mmHg 57%
    19:00 +22°C° 0 mm 3 mps 724 mmHg 64%
    20:00 +20°C° 0 mm 2 mps 724 mmHg 71%
    21:00 +20°C° 0 mm 2 mps 724 mmHg 73%
    22:00 +20°C° 0 mm 1 mps 724 mmHg 75%
    23:00 +20°C° 0 mm 1 mps 725 mmHg 78%

    Day after tomorrow, 25 September, Monday

    Time Temperature Precipitation Wind Pressure Humidity
    00:00 +19°C° 0 mm 1 mps 725 mmHg 79%
    01:00 +19°C° 0 mm 1 mps 724 mmHg 80%
    02:00 +19°C° 0 mm 1 mps 724 mmHg 81%
    03:00 +19°C° 0 mm 1 mps 724 mmHg 82%
    04:00 +19°C° 0 mm 1 mps 724 mmHg 83%
    05:00 +16°C° 0 mm 0 mps 724 mmHg 85%
    06:00 +18°C° 0 mm 0 mps 725 mmHg 79%
    07:00 +19°C° 0 mm 0 mps 726 mmHg 74%
    08:00 +21°C° 0 mm 0 mps 727 mmHg 68%
    09:00 +24°C° 0.2 mm 1 mps 727 mmHg 63%
    10:00 +26°C° 0.2 mm 2 mps 727 mmHg 58%
    11:00 +28°C° 0.2 mm 2 mps 727 mmHg 53%
    12:00 +29°C° 0.2 mm 3 mps 726 mmHg 51%
    13:00 +29°C° 0.2 mm 3 mps 726 mmHg 49%
    14:00 +30°C° 0.2 mm 3 mps 725 mmHg 46%
    15:00 +29°C° 0.6 mm 3 mps 725 mmHg 51%
    16:00 +28°C° 0.6 mm 4 mps 725 mmHg 55%
    17:00 +27°C° 0.6 mm 4 mps 724 mmHg 59%
    18:00 +26°C° 0.5 mm 3 mps 724 mmHg 65%
    19:00 +25°C° 0.5 mm 2 mps 725 mmHg 72%
    20:00 +23°C° 0.5 mm 2 mps 725 mmHg 79%
    21:00 +23°C° 0.4 mm 2 mps 725 mmHg 80%
    22:00 +23°C° 0.4 mm 2 mps 725 mmHg 82%
    23:00 +23°C° 0.4 mm 1 mps 725 mmHg 84%

    26 September, Tuesday

    Time Temperature Precipitation Wind Pressure Humidity
    00:00 +22°C° 0.3 mm 1 mps 725 mmHg 85%
    01:00 +22°C° 0.3 mm 1 mps 724 mmHg 86%
    02:00 +22°C° 0.3 mm 1 mps 724 mmHg 87%
    03:00 +21°C° 0.3 mm 1 mps 724 mmHg 89%
    04:00 +20°C° 0.3 mm 2 mps 724 mmHg 90%
    05:00 +20°C° 0.3 mm 2 mps 724 mmHg 91%
    06:00 +19°C° 1.5 mm 2 mps 724 mmHg 92%
    07:00 +19°C° 1.5 mm 2 mps 724 mmHg 93%
    08:00 +19°C° 1.5 mm 2 mps 724 mmHg 94%
    09:00 +19°C° 0.8 mm 2 mps 724 mmHg 93%
    10:00 +20°C° 0.8 mm 2 mps 724 mmHg 91%
    11:00 +20°C° 0.8 mm 3 mps 724 mmHg 90%
    12:00 +20°C° 0.5 mm 2 mps 723 mmHg 88%
    13:00 +21°C° 0.5 mm 2 mps 723 mmHg 86%
    14:00 +21°C° 0.5 mm 2 mps 722 mmHg 85%
    15:00 +21°C° 0.4 mm 2 mps 722 mmHg 87%
    16:00 +21°C° 0.4 mm 2 mps 723 mmHg 89%
    17:00 +20°C° 0.4 mm 2 mps 723 mmHg 91%
    18:00 +20°C° 0.5 mm 3 mps 723 mmHg 92%
    19:00 +19°C° 0.5 mm 3 mps 724 mmHg 94%
    20:00 +19°C° 0.5 mm 3 mps 724 mmHg 95%
    21:00 +18°C° 0.8 mm 4 mps 725 mmHg 94%
    22:00 +17°C° 0.8 mm 4 mps 725 mmHg 93%
    23:00 +15°C° 0.8 mm 5 mps 725 mmHg 92%

    27 September, Wednesday

    Time Temperature Precipitation Wind Pressure Humidity
    00:00 +15°C° 0.4 mm 4 mps 725 mmHg 91%
    01:00 +14°C° 0.4 mm 4 mps 725 mmHg 91%
    02:00 +14°C° 0.4 mm 4 mps 725 mmHg 90%
    03:00 +13°C° 0.2 mm 4 mps 726 mmHg 90%
    04:00 +13°C° 0.2 mm 4 mps 726 mmHg 90%
    05:00 +13°C° 0.2 mm 4 mps 726 mmHg 91%
    06:00 +13°C° 0.2 mm 4 mps 727 mmHg 91%
    07:00 +13°C° 0.2 mm 4 mps 727 mmHg 90%
    08:00 +13°C° 0.2 mm 4 mps 728 mmHg 90%
    09:00 +13°C° 0.1 mm 3 mps 728 mmHg 88%
    10:00 +13°C° 0.1 mm 3 mps 728 mmHg 86%
    11:00 +14°C° 0.1 mm 3 mps 728 mmHg 84%
    12:00 +14°C° 0.1 mm 3 mps 728 mmHg 83%
    13:00 +14°C° 0.1 mm 3 mps 728 mmHg 83%
    14:00 +16°C° 0.1 mm 3 mps 727 mmHg 82%
    15:00 +16°C° 0 mm 2 mps 727 mmHg 82%
    16:00 +16°C° 0 mm 2 mps 727 mmHg 82%
    17:00 +16°C° 0 mm 2 mps 726 mmHg 83%
    18:00 +15°C° 0 mm 2 mps 727 mmHg 85%
    19:00 +15°C° 0 mm 2 mps 727 mmHg 87%
    20:00 +14°C° 0 mm 1 mps 727 mmHg 90%
    21:00 +14°C° 0 mm 1 mps 727 mmHg 90%
    22:00 +14°C° 0 mm 1 mps 726 mmHg 91%
    23:00 +14°C° 0 mm 1 mps 726 mmHg 91%

    28 September, Thursday

    Time Temperature Precipitation Wind Pressure Humidity
    00:00 +14°C° 0 mm 1 mps 726 mmHg 91%
    01:00 +14°C° 0 mm 1 mps 726 mmHg 91%
    02:00 +14°C° 0 mm 1 mps 725 mmHg 91%
    03:00 +14°C° 0 mm 1 mps 725 mmHg 91%
    04:00 +14°C° 0 mm 1 mps 725 mmHg 91%
    05:00 +14°C° 0 mm 1 mps 725 mmHg 91%
    06:00 +15°C° 0 mm 1 mps 726 mmHg 90%
    07:00 +15°C° 0 mm 1 mps 726 mmHg 89%
    08:00 +16°C° 0 mm 1 mps 726 mmHg 87%
    09:00 +17°C° 0 mm 2 mps 726 mmHg 84%
    10:00 +18°C° 0 mm 2 mps 726 mmHg 81%
    11:00 +19°C° 0 mm 3 mps 726 mmHg 77%
    12:00 +20°C° 0 mm 3 mps 725 mmHg 75%
    13:00 +20°C° 0 mm 3 mps 725 mmHg 73%
    14:00 +21°C° 0 mm 3 mps 724 mmHg 71%
    15:00 +21°C° 0 mm 3 mps 724 mmHg 73%
    16:00 +21°C° 0 mm 3 mps 724 mmHg 74%
    17:00 +21°C° 0 mm 3 mps 723 mmHg 75%
    18:00 +20°C° 0 mm 3 mps 724 mmHg 80%
    19:00 +19°C° 0 mm 2 mps 724 mmHg 85%
    20:00 +18°C° 0 mm 2 mps 724 mmHg 91%
    21:00 +19°C° 0 mm 1 mps 724 mmHg 91%
    22:00 +18°C° 0 mm 1 mps 724 mmHg 92%
    23:00 +18°C° 0 mm 1 mps 724 mmHg 93%
    Show more